Wind_Speed
11 9 11 10 6 4 5 5 6 8 15 12 6 7 7 8 6 6 3 9 14 18 21 28 29 29 28 26 24 21 18 14 11 7 6 8 9 9 8 5 5 5 6 8 10 12 12 12 12
10 7 9 7 3 5 5 6 4 11 7 7 3 2 4 6 6 8 7 8 14 20 24 29 31 31 30 29 25 22 17 17 13 9 9 10 11 10 7 6 5 6 7 9 12 13 14 16 17
9 8 6 3 5 9 5 4 10 12 3 1 4 6 8 7 5 8 4 9 17 22 27 31 32 33 32 30 26 23 19 18 14 10 11 13 12 10 8 7 6 6 8 9 12 13 15 17 18
8 6 4 7 9 7 9 9 11 12 8 7 5 7 8 6 11 7 8 11 12 19 26 30 33 34 32 30 25 22 22 19 13 13 14 14 12 9 8 7 6 6 7 11 12 14 15 16 16
6 4 7 11 8 3 5 5 9 2 8 6 7 8 8 9 10 10 6 7 13 15 22 30 35 37 34 31 30 24 22 19 17 16 16 14 12 10 9 7 5 6 9 11 14 15 15 16 16
5 5 8 10 1 4 4 3 5 0 5 9 10 10 10 8 10 10 6 9 15 19 27 34 37 36 34 27 26 23 22 18 18 16 16 15 13 10 8 7 4 4 8 11 13 13 14 13 15
6 8 1 2 4 7 6 5 3 5 4 6 8 9 9 8 10 9 9 11 13 22 31 36 42 37 36 31 27 25 22 20 18 16 16 15 13 12 9 4 3 6 8 10 13 13 18 18 16
9 4 2 1 2 7 5 4 2 5 6 11 10 7 11 9 7 9 13 12 8 17 31 32 32 45 43 37 30 28 25 20 25 18 18 16 13 10 6 1 3 7 7 8 11 16 19 17 13
8 6 4 2 4 6 7 6 7 9 11 11 10 12 10 8 7 7 9 7 5 22 25 26 32 40 46 37 33 26 29 30 22 19 17 15 12 8 5 3 5 6 8 9 13 16 17 12 12
7 4 4 1 4 6 7 4 6 9 7 6 6 4 8 6 4 3 6 7 12 12 23 34 35 38 39 40 34 30 23 19 19 18 15 12 9 7 5 7 9 9 9 12 15 15 12 11 13
5 4 7 4 6 8 6 5 6 4 4 7 6 8 7 6 4 3 4 9 12 14 29 28 20 25 28 35 25 20 19 20 19 16 13 10 8 8 9 10 10 11 13 16 17 14 11 11 13
8 6 9 7 8 6 8 4 2 4 3 1 7 10 10 15 10 4 16 13 17 17 19 34 41 42 38 31 26 23 20 15 11 10 10 9 8 9 10 10 12 15 18 17 13 12 12 16 20
5 3 1 2 3 2 5 4 3 4 3 9 12 23 14 11 18 11 20 23 31 29 25 24 29 30 26 23 21 19 16 14 12 10 8 7 8 9 10 14 16 14 12 11 12 13 16 20 23
7 1 1 4 3 3 2 5 4 10 12 12 7 17 20 24 20 18 19 17 20 22 23 24 24 24 23 20 18 17 15 14 12 8 7 5 7 9 10 9 8 9 10 11 12 15 19 23 27
5 1 1 6 3 3 1 2 3 5 9 8 3 12 19 19 18 18 18 17 19 21 21 22 21 22 22 21 19 15 14 12 7 4 3 5 7 9 9 8 8 9 10 12 15 19 22 25 28
4 5 1 4 3 2 4 2 3 5 2 7 5 8 15 14 15 15 17 16 17 20 21 21 20 20 20 19 17 14 12 9 5 3 5 7 9 10 10 9 8 9 12 15 20 24 29 32 33
2 5 4 2 4 5 6 3 3 4 5 6 8 11 13 15 11 14 17 18 18 17 16 16 16 14 14 13 12 10 9 6 4 3 6 9 9 11 11 10 12 13 15 19 24 29 32 34 36
2 6 5 6 4 13 10 7 6 4 5 7 8 12 13 14 14 13 15 17 17 16 16 15 13 11 10 8 7 6 3 2 3 5 7 9 10 11 12 13 14 15 19 24 29 31 33 34 33
5 5 5 5 7 12 16 15 9 10 9 7 8 11 13 15 12 13 16 16 15 13 12 12 10 7 6 5 3 3 5 7 7 8 9 10 11 12 12 14 17 19 23 26 28 31 33 33 35
1 5 6 7 11 12 12 14 15 16 13 5 3 8 11 10 12 11 10 11 10 9 9 9 10 10 6 6 7 8 9 11 11 12 11 11 12 13 15 18 20 22 25 28 28 32 32 29 35
8 8 14 12 12 4 7 11 11 17 19 16 11 9 11 9 7 7 5 5 5 3 3 6 8 9 9 8 11 11 14 13 13 13 13 13 15 16 19 21 23 24 27 31 34 33 37 37 39
8 10 13 7 6 4 6 3 8 13 18 20 16 14 11 11 12 10 8 4 4 5 7 11 11 13 13 12 15 15 17 17 15 17 17 16 19 21 22 23 27 29 33 37 41 40 39 40 43
11 10 10 6 4 5 4 3 6 8 19 21 19 19 17 15 13 15 11 11 9 9 9 13 14 14 17 15 16 19 22 20 20 23 21 18 23 24 25 27 31 37 41 42 45 41 44 37 42
10 9 8 7 6 1 5 5 5 9 11 13 17 22 21 21 18 16 15 15 16 15 19 21 23 15 19 19 16 19 23 24 26 24 24 21 25 27 27 35 39 42 48 43 40 39 43 43 40
5 5 3 3 3 4 4 4 10 21 19 20 14 16 22 23 24 23 19 18 15 16 18 23 23 11 15 20 21 23 21 23 26 26 27 25 30 30 34 37 44 45 48 49 41 46 44 44 44
8 4 3 2 1 3 6 6 14 21 18 16 15 12 14 17 20 23 19 18 18 18 21 21 21 17 17 20 23 25 22 20 24 25 27 30 34 37 37 41 43 43 47 45 46 43 44 43 42
6 5 4 3 2 1 7 13 17 8 13 11 13 10 9 11 15 19 16 14 14 17 18 19 19 20 22 24 22 20 15 19 23 24 25 28 28 32 35 39 42 42 45 43 44 45 45 41 42
10 6 3 3 2 3 4 7 9 16 6 5 6 4 7 8 6 8 10 12 11 14 14 19 20 21 22 17 14 14 14 16 17 19 21 23 26 28 33 36 41 43 45 45 47 47 42 42 42
12 12 13 12 6 4 1 5 9 13 2 3 5 5 5 6 8 8 7 9 12 15 12 9 10 9 12 13 14 14 15 16 19 21 22 24 27 29 33 36 39 41 43 44 44 39 39 40 41
19 19 16 17 6 7 7 20 18 17 12 14 12 10 8 3 6 10 10 9 8 8 8 6 10 13 17 15 17 18 18 20 21 22 25 27 28 31 34 36 39 42 45 45 42 39 39 40 35
Wind_Direction
263 269 272 249 215 224 242 244 328 292 277 291 231 231 211 224 212 226 276 229 210 198 210 206 205 202 201 202 202 195 194 196 194 183 152 154 147 144 141 130 98 72 56 56 57 53 49 44 43
271 281 268 234 208 203 230 245 323 355 293 257 167 209 231 220 217 248 268 231 208 209 212 207 201 199 200 202 198 192 194 211 192 177 161 154 148 141 130 112 90 68 58 51 52 43 37 35 30
283 285 254 197 193 217 232 259 308 318 300 223 219 238 273 260 272 304 234 223 221 204 208 205 203 201 202 199 194 189 218 196 184 172 165 157 147 147 134 115 94 70 50 39 32 28 30 31 26
284 270 224 197 204 230 283 306 308 273 251 265 285 274 252 282 307 288 266 194 206 207 207 208 205 202 201 198 195 198 204 184 175 177 167 153 155 153 135 117 95 63 37 31 25 22 22 19 13
272 241 205 209 222 306 323 12 3 288 237 257 271 269 268 287 282 284 283 195 213 220 212 213 208 204 197 193 196 178 179 172 177 167 163 158 158 150 136 126 107 61 38 21 21 17 11 12 7
251 202 211 223 222 341 334 287 325 16 240 256 254 265 270 254 265 265 252 235 225 218 220 211 209 195 189 177 178 175 170 158 167 161 164 163 161 158 161 149 114 66 44 23 5 1 359 357 349
243 218 200 160 32 41 60 73 360 272 234 239 250 260 270 272 299 260 284 274 249 223 215 209 212 191 174 170 163 165 153 156 155 163 171 170 173 179 182 166 79 30 28 4 348 343 341 334 337
216 205 211 121 82 43 354 357 280 246 255 268 273 274 279 294 289 265 272 255 235 240 218 211 189 171 163 143 145 146 151 148 165 179 176 180 186 193 201 215 14 10 339 336 345 335 338 334 337
222 220 227 289 38 360 334 265 260 260 266 275 269 266 279 288 273 253 257 251 236 218 213 210 198 162 139 145 148 147 152 172 169 177 184 192 198 211 231 312 326 305 303 330 338 334 331 331 337
236 238 252 5 335 10 11 295 287 278 285 301 287 247 271 261 249 268 244 233 196 206 213 191 200 163 145 142 132 151 154 152 170 182 192 198 208 235 276 282 280 288 305 328 332 331 325 325 326
277 292 317 308 324 353 349 320 291 270 295 326 290 283 229 213 170 39 216 213 220 231 192 195 180 174 166 147 145 145 160 169 174 184 193 209 224 249 256 263 281 296 306 312 320 323 318 319 326
308 310 289 293 287 305 326 353 323 312 317 316 341 303 236 166 114 194 130 125 142 142 145 130 114 121 131 143 147 149 154 154 164 182 196 212 232 255 272 282 287 294 301 302 307 315 325 332 333
325 274 93 17 138 344 334 360 347 342 359 94 63 67 178 171 166 165 120 117 117 116 118 114 128 130 127 126 126 133 148 155 167 179 193 219 247 269 285 287 288 298 300 305 313 324 332 331 331
275 127 18 6 129 92 346 31 53 117 120 130 123 106 126 136 139 130 128 136 130 132 128 125 124 121 121 129 133 136 146 153 155 169 204 237 272 283 286 292 299 319 318 316 323 327 326 325 327
218 139 31 152 229 143 333 338 86 132 132 167 163 112 106 112 113 114 119 126 128 132 130 128 128 128 132 134 138 140 148 148 144 163 235 275 289 310 323 326 328 325 323 321 319 319 318 318 317
262 252 322 135 147 249 163 268 147 163 141 175 130 128 102 104 118 123 128 139 146 135 132 131 133 135 137 140 142 144 146 161 183 241 273 303 310 318 322 330 321 321 321 320 317 314 314 314 309
195 299 318 44 153 220 239 287 212 170 151 174 161 148 132 125 120 124 137 142 139 139 133 134 138 140 143 144 147 152 165 184 216 280 304 305 304 313 315 316 313 313 313 313 312 313 312 309 309
62 41 28 133 148 269 264 244 292 209 178 145 140 154 135 128 126 131 142 145 149 152 152 154 161 162 159 148 163 173 172 220 252 271 291 302 300 304 300 295 296 301 305 303 305 311 315 314 313
9 339 333 228 256 280 280 273 257 235 202 167 157 146 136 131 132 144 156 161 168 171 163 165 172 182 183 167 164 195 232 249 263 269 281 291 289 289 287 290 292 290 291 299 304 309 314 313 312
257 269 297 305 314 260 261 266 254 244 242 233 164 156 155 155 153 159 162 168 169 176 183 195 199 206 215 221 231 242 248 262 276 275 277 279 283 284 285 291 290 284 286 292 302 309 307 313 312
195 295 303 298 312 264 232 244 245 241 231 226 221 194 189 157 143 142 161 182 206 203 230 220 229 237 247 262 263 271 279 280 277 293 277 274 274 270 274 277 279 283 286 289 293 299 313 299 314
287 320 323 284 301 235 190 238 248 256 240 233 232 225 204 190 190 193 190 153 155 180 220 234 240 248 245 252 269 282 292 275 273 274 255 261 268 263 268 277 281 285 287 286 290 290 307 302 311
287 292 324 301 301 224 210 210 235 273 248 241 239 240 230 225 224 221 219 217 229 244 255 249 241 251 253 260 273 282 285 268 267 266 256 263 267 265 270 280 284 281 287 288 298 298 313 302 318
272 284 294 274 265 203 234 261 259 288 298 271 260 249 246 241 239 241 243 242 238 241 250 255 235 222 243 256 266 292 280 263 270 264 257 261 264 268 274 283 283 286 293 303 300 306 313 311 314
252 262 335 338 6 227 262 261 288 308 304 273 277 260 257 259 259 251 250 257 262 260 263 267 260 248 259 270 275 293 272 260 265 259 260 262 268 275 282 284 290 295 304 295 303 310 315 314 314
224 223 171 242 210 279 292 260 296 305 305 279 254 293 260 242 249 254 255 267 260 267 267 273 263 271 273 277 286 286 268 266 262 271 276 278 282 284 292 295 301 303 307 303 306 311 311 312 315
211 214 207 188 253 319 256 270 292 301 324 290 277 274 265 253 245 247 263 254 249 266 266 279 274 275 285 285 279 280 272 271 278 281 285 287 295 299 299 296 306 302 301 306 311 313 313 315 319
233 246 206 213 168 251 263 275 277 330 323 9 25 341 287 285 285 248 270 246 242 253 253 258 268 281 279 276 283 290 283 276 281 287 292 291 293 296 296 296 295 298 304 310 314 315 315 319 318
245 248 263 251 215 180 233 253 288 315 271 35 346 352 337 296 267 258 245 233 234 230 226 240 267 284 287 292 292 282 279 284 290 291 297 301 298 298 296 294 295 299 305 311 316 316 319 317 311
269 279 252 231 227 228 255 274 283 279 276 281 308 288 286 337 284 245 233 220 215 227 227 258 274 294 288 290 292 291 289 292 298 299 300 296 292 292 289 293 298 304 306 309 310 316 315 314 310
Height
3125 3125 3126 3127 3132 3130 3130 3130 3129 3129 3129 3128 3131 3132 3132 3134 3135 3139 3136 3136 3140 3142 3144 3145 3147 3150 3153 3157 3160 3162 3164 3166 3169 3170 3170 3172 3172 3174 3174 3175 3175 3176 3176 3176 3176 3177 3177 3177 3175
3124 3124 3125 3125 3129 3128 3128 3128 3127 3126 3126 3129 3131 3131 3132 3132 3133 3135 3136 3136 3137 3140 3143 3144 3147 3149 3151 3154 3158 3161 3164 3167 3169 3170 3171 3172 3172 3173 3175 3175 3176 3177 3177 3177 3176 3176 3176 3177 3176
3123 3124 3124 3125 3126 3125 3125 3126 3126 3125 3126 3127 3130 3130 3132 3132 3132 3132 3133 3136 3137 3139 3142 3144 3145 3147 3150 3153 3156 3160 3164 3167 3169 3170 3171 3172 3172 3174 3175 3176 3177 3178 3178 3178 3177 3177 3177 3177 3177
3123 3124 3124 3123 3122 3124 3124 3125 3124 3123 3124 3126 3128 3128 3129 3129 3130 3131 3131 3133 3135 3138 3141 3143 3145 3146 3149 3153 3156 3160 3163 3166 3167 3170 3171 3172 3174 3175 3175 3176 3178 3179 3179 3178 3177 3177 3178 3177 3176
3122 3122 3121 3119 3121 3122 3123 3123 3123 3121 3123 3126 3127 3128 3128 3129 3130 3129 3128 3131 3135 3137 3139 3140 3141 3142 3146 3151 3153 3158 3161 3164 3167 3169 3171 3173 3174 3175 3176 3177 3179 3180 3179 3178 3178 3177 3177 3177 3176
3121 3121 3119 3119 3121 3122 3121 3122 3122 3122 3123 3125 3125 3126 3127 3127 3127 3128 3128 3129 3131 3133 3136 3136 3137 3133 3139 3149 3150 3158 3160 3162 3166 3169 3171 3173 3174 3176 3177 3178 3179 3181 3182 3180 3178 3179 3178 3178 3177
3120 3121 3121 3122 3122 3121 3121 3120 3121 3121 3122 3124 3124 3124 3125 3126 3125 3126 3126 3125 3126 3129 3131 3130 3130 3129 3136 3144 3152 3157 3159 3163 3166 3169 3171 3173 3174 3175 3176 3179 3180 3182 3182 3182 3180 3179 3178 3176 3175
3120 3122 3122 3122 3121 3121 3121 3119 3120 3121 3122 3122 3122 3122 3123 3123 3123 3123 3123 3122 3122 3125 3126 3125 3117 3117 3126 3138 3149 3154 3158 3161 3167 3169 3171 3173 3174 3176 3177 3179 3181 3181 3182 3183 3182 3179 3176 3174 3173
3120 3122 3122 3122 3120 3121 3120 3119 3119 3119 3120 3120 3121 3121 3120 3119 3120 3121 3120 3119 3120 3122 3123 3119 3121 3116 3127 3139 3146 3153 3159 3160 3163 3168 3171 3172 3174 3177 3178 3179 3180 3181 3182 3181 3180 3178 3175 3173 3171
3121 3121 3122 3122 3121 3120 3119 3119 3119 3120 3120 3120 3120 3119 3117 3117 3117 3117 3116 3117 3117 3119 3120 3118 3119 3126 3133 3138 3146 3151 3156 3159 3163 3168 3172 3173 3175 3176 3178 3179 3179 3179 3179 3178 3177 3177 3174 3171 3169
3121 3121 3121 3121 3120 3119 3119 3118 3118 3118 3119 3119 3117 3117 3117 3116 3117 3117 3115 3117 3117 3120 3116 3118 3123 3126 3131 3140 3147 3150 3156 3159 3163 3168 3171 3174 3175 3176 3177 3177 3177 3178 3177 3177 3175 3173 3172 3170 3168
3121 3121 3120 3119 3119 3119 3119 3118 3118 3118 3119 3118 3117 3115 3115 3115 3118 3117 3115 3117 3118 3117 3119 3122 3121 3131 3138 3140 3145 3150 3156 3160 3165 3168 3172 3173 3174 3175 3175 3175 3175 3175 3174 3173 3172 3170 3168 3166 3164
3120 3119 3118 3118 3118 3119 3118 3118 3118 3117 3117 3119 3118 3113 3111 3113 3119 3120 3118 3121 3120 3123 3126 3127 3131 3135 3140 3144 3149 3153 3156 3161 3165 3169 3170 3170 3172 3172 3172 3172 3172 3171 3172 3170 3169 3167 3163 3163 3161
3119 3119 3118 3117 3116 3118 3118 3119 3118 3119 3118 3119 3120 3117 3118 3118 3119 3120 3120 3125 3128 3130 3131 3133 3137 3140 3143 3147 3150 3155 3158 3163 3165 3167 3169 3169 3170 3170 3171 3170 3169 3168 3168 3168 3166 3164 3162 3161 3158
3118 3118 3118 3117 3117 3117 3118 3120 3119 3120 3120 3122 3121 3122 3120 3120 3123 3124 3126 3131 3133 3134 3134 3137 3139 3143 3147 3149 3152 3156 3159 3161 3164 3166 3168 3169 3169 3168 3167 3166 3166 3166 3165 3164 3164 3162 3161 3159 3156
3118 3118 3118 3118 3118 3118 3120 3120 3120 3120 3121 3122 3122 3123 3123 3123 3126 3127 3129 3132 3135 3138 3140 3141 3144 3146 3149 3151 3153 3156 3158 3161 3163 3165 3166 3166 3165 3165 3164 3164 3164 3164 3163 3162 3161 3160 3157 3154 3152
3119 3118 3118 3118 3119 3118 3120 3120 3120 3121 3123 3123 3124 3125 3126 3127 3127 3128 3131 3133 3136 3139 3142 3143 3145 3148 3149 3151 3152 3155 3158 3159 3161 3162 3163 3164 3163 3162 3161 3161 3162 3161 3160 3158 3157 3156 3153 3149 3146
3119 3118 3119 3120 3121 3118 3118 3120 3119 3121 3123 3124 3125 3125 3126 3128 3129 3130 3132 3134 3137 3139 3141 3143 3146 3148 3149 3150 3152 3154 3156 3158 3160 3160 3160 3159 3159 3158 3159 3159 3159 3158 3156 3155 3155 3152 3148 3145 3141
3119 3118 3118 3119 3119 3118 3117 3118 3119 3121 3122 3123 3125 3126 3126 3129 3131 3132 3134 3137 3138 3139 3142 3144 3145 3148 3150 3152 3153 3153 3156 3158 3157 3157 3156 3157 3157 3156 3157 3155 3155 3154 3153 3151 3150 3146 3143 3140 3138
3118 3118 3118 3118 3117 3116 3116 3116 3118 3119 3120 3123 3124 3126 3127 3128 3130 3131 3132 3134 3136 3139 3140 3142 3144 3145 3147 3150 3151 3152 3152 3153 3153 3153 3153 3154 3154 3153 3153 3153 3153 3151 3149 3146 3144 3141 3139 3137 3133
3116 3116 3115 3116 3115 3113 3114 3115 3115 3117 3119 3121 3122 3124 3126 3129 3130 3132 3132 3133 3134 3135 3137 3138 3140 3141 3143 3144 3146 3148 3148 3149 3150 3150 3150 3150 3151 3151 3151 3149 3148 3145 3143 3141 3139 3137 3135 3132 3128
3115 3116 3114 3113 3114 3115 3115 3116 3114 3115 3116 3118 3120 3121 3123 3126 3128 3130 3132 3133 3134 3135 3135 3136 3139 3140 3142 3143 3143 3144 3145 3145 3146 3146 3147 3147 3148 3147 3146 3144 3142 3140 3138 3135 3133 3130 3128 3124 3119
3114 3113 3112 3112 3112 3113 3114 3115 3115 3114 3114 3114 3116 3116 3118 3121 3124 3126 3128 3130 3132 3133 3134 3135 3138 3139 3140 3140 3141 3141 3140 3141 3142 3141 3142 3142 3143 3141 3140 3138 3137 3134 3132 3129 3126 3122 3119 3114 3109
3111 3111 3111 3110 3110 3112 3111 3112 3109 3110 3110 3110 3110 3112 3114 3116 3118 3121 3124 3126 3128 3130 3130 3131 3128 3130 3136 3136 3136 3136 3135 3136 3136 3136 3138 3137 3137 3135 3133 3132 3130 3127 3124 3121 3118 3114 3110 3105 3100
3109 3109 3110 3112 3112 3111 3110 3110 3106 3106 3106 3106 3107 3109 3110 3111 3113 3115 3118 3121 3124 3125 3126 3125 3123 3126 3130 3131 3130 3130 3129 3129 3130 3131 3131 3130 3129 3129 3128 3126 3123 3121 3117 3111 3109 3104 3099 3095 3091
3107 3108 3109 3112 3116 3111 3109 3106 3104 3104 3102 3101 3102 3103 3103 3105 3108 3110 3113 3116 3119 3120 3121 3121 3122 3123 3125 3126 3125 3125 3123 3123 3124 3125 3125 3125 3124 3123 3120 3118 3116 3112 3108 3104 3100 3095 3090 3085 3081
3105 3106 3108 3108 3109 3110 3107 3105 3103 3102 3100 3099 3099 3099 3099 3101 3104 3107 3109 3111 3113 3116 3116 3118 3118 3120 3121 3121 3120 3118 3117 3119 3120 3119 3119 3119 3117 3115 3112 3109 3108 3104 3100 3095 3091 3085 3081 3077 3072
3104 3105 3106 3106 3109 3109 3104 3103 3101 3100 3099 3099 3098 3097 3098 3098 3100 3102 3104 3106 3108 3110 3112 3115 3116 3115 3115 3115 3113 3112 3113 3114 3114 3114 3114 3112 3109 3107 3105 3102 3099 3096 3091 3086 3081 3076 3072 3067 3063
3101 3100 3102 3104 3103 3104 3107 3101 3101 3101 3100 3099 3099 3098 3098 3097 3098 3099 3101 3102 3103 3106 3107 3109 3111 3112 3113 3111 3110 3110 3110 3109 3109 3108 3106 3104 3101 3099 3096 3094 3091 3087 3081 3077 3073 3068 3064 3060 3056
3096 3096 3096 3098 3100 3099 3099 3095 3098 3098 3099 3098 3099 3099 3098 3098 3097 3097 3098 3100 3102 3104 3104 3106 3108 3108 3108 3107 3106 3104 3104 3103 3102 3100 3098 3096 3094 3091 3088 3085 3082 3077 3073 3069 3065 3062 3059 3054 3049